This is the latest recevied weather packets stored in our database for station/object SP9SOY-2. If no packets are shown the sender has not sent any weather packets the latest 1 day(s).
| Time | Temp. | Humidity | Pressure | Rain* | Wind** | Luminosity | Snow |
|---|---|---|---|---|---|---|---|
| 1778018230 | 18.33° C | 15% | - | - | - | 0 W/m² | - |
| 1778016436 | 18.89° C | 15% | - | - | - | 0 W/m² | - |
| 1778014637 | 18.89° C | 15% | - | - | - | 0 W/m² | - |
| 1778011030 | 19.44° C | 15% | - | - | - | 0 W/m² | - |
| 1778009230 | 20° C | 15% | - | - | - | 0 W/m² | - |
| 1778007437 | 20° C | 15% | - | - | - | 0 W/m² | - |
| 1778005632 | 21.11° C | 14% | - | - | - | 9 W/m² | - |
| 1778003831 | 21.67° C | 14% | - | - | - | 18 W/m² | - |
| 1778002032 | 22.78° C | 13% | - | - | - | 24 W/m² | - |
| 1778000234 | 23.89° C | 13% | - | - | - | 30 W/m² | - |
| 1777998431 | 25° C | 13% | - | - | - | 98 W/m² | - |
| 1777996630 | 25.56° C | 13% | - | - | - | 166 W/m² | - |
| 1777994835 | 26.11° C | 12% | - | - | - | 166 W/m² | - |
| 1777993031 | 25.56° C | 13% | - | - | - | 166 W/m² | - |
| 1777991235 | 25.56° C | 13% | - | - | - | 153 W/m² | - |
| 1777989431 | 26.11° C | 12% | - | - | - | 140 W/m² | - |
| 1777987633 | 26.11° C | 12% | - | - | - | 358 W/m² | - |
| 1777985830 | 26.11° C | 12% | - | - | - | 576 W/m² | - |
| 1777984033 | 26.67° C | 12% | - | - | - | 793 W/m² | - |
| 1777982229 | 26.67° C | 12% | - | - | - | 1010 W/m² | - |
| 1777980435 | 26.67° C | 12% | - | - | - | 948 W/m² | - |
| 1777978636 | 26.67° C | 12% | - | - | - | 886 W/m² | - |
| 1777976829 | 26.11° C | 12% | - | - | - | 806 W/m² | - |
| 1777975029 | 26.11° C | 12% | - | - | - | 726 W/m² | - |
| 1777973232 | 25° C | 13% | - | - | - | 726 W/m² | - |
* Rain since midnight (hover to see other rain measurements)
** Current wind speed in m/s (hover to see current wind gust speed)